This is the latest recevied weather packets stored in our database for station/object KI8L. If no packets are shown the sender has not sent any weather packets the latest 10 day(s).
| Time | Temp. | Humidity | Pressure | Rain* | Wind** | Luminosity | Snow |
|---|---|---|---|---|---|---|---|
| 1777835145 | 15° C | 47% | 1016.8 hPa | 0 mm | - | 740 W/m² | - |
| 1777834842 | 15° C | 45% | 1016.8 hPa | 0 mm | - | 205 W/m² | - |
| 1777834538 | 15° C | 45% | 1017 hPa | 0 mm | - | 357 W/m² | - |
| 1777834238 | 14.44° C | 47% | 1017 hPa | 0 mm | - | 218 W/m² | - |
| 1777833934 | 14.44° C | 48% | 1017 hPa | 0 mm | - | 204 W/m² | - |
| 1777833631 | 15.56° C | 43% | 1017 hPa | 0 mm | - | 177 W/m² | - |
| 1777833328 | 15.56° C | 48% | 1017 hPa | 0 mm | - | 264 W/m² | - |
| 1777833025 | 15° C | 45% | 1017 hPa | 0 mm | - | 266 W/m² | - |
| 1777832723 | 15.56° C | 42% | 1017.4 hPa | 0 mm | - | 750 W/m² | - |
| 1777832421 | 15.56° C | 46% | 1017.5 hPa | 0 mm | - | 439 W/m² | - |
| 1777832118 | 15.56° C | 48% | 1017.6 hPa | 0 mm | - | 682 W/m² | - |
| 1777831814 | 15° C | 45% | 1017.6 hPa | 0 mm | - | 179 W/m² | - |
| 1777831511 | 15.56° C | 43% | 1017.5 hPa | 0 mm | - | 264 W/m² | - |
| 1777831209 | 15° C | 48% | 1017.6 hPa | 0 mm | - | 749 W/m² | - |
| 1777830906 | 14.44° C | 48% | 1017.7 hPa | 0 mm | - | 257 W/m² | - |
| 1777830603 | 14.44° C | 46% | 1017.7 hPa | 0 mm | - | 783 W/m² | - |
| 1777830300 | 15° C | 44% | 1017.7 hPa | 0 mm | - | 233 W/m² | - |
| 1777829996 | 15° C | 50% | 1017.9 hPa | 0 mm | - | 761 W/m² | - |
| 1777829691 | 15° C | 44% | 1018 hPa | 0 mm | - | 733 W/m² | - |
| 1777829388 | 14.44° C | 44% | 1018 hPa | 0 mm | - | 708 W/m² | - |
| 1777829086 | 13.89° C | 48% | 1017.8 hPa | 0 mm | - | 733 W/m² | - |
| 1777828782 | 15.56° C | 52% | 1017.9 hPa | 0 mm | - | 730 W/m² | - |
| 1777828479 | 14.44° C | 50% | 1018.1 hPa | 0 mm | - | 712 W/m² | - |
| 1777828177 | 15° C | 47% | 1018.2 hPa | 0 mm | - | 695 W/m² | - |
| 1777827872 | 15° C | 49% | 1018 hPa | 0 mm | - | 691 W/m² | - |
* Rain latest hour (hover to see other rain measurements)
** Current wind speed in m/s (hover to see current wind gust speed)